Regional Weather Roundup
Issued by NWS

Home | Current Version | Previous Version | Graphics & Text | Print | Product List | Glossary On
Versions: 1 2 3 4 5 6 7 8 9 10 11 12 13 14 15 16 17 18 19 20 21 22 23 24 25 26 27 28 29 30 31 32 33 34 35 36 37 38 39 40 41 42 43 44 45 46 47 48 49 50
000
ASUS43 KMPX 152201
RWRMN
WEATHER ROUNDUP FOR MINNESOTA
NATIONAL WEATHER SERVICE TWIN CITIES/CHANHASSEN MN
500 PM CDT TUE AUG 15 2017


NOTE: "FAIR" INDICATES FEW OR NO CLOUDS BELOW 12,000 FEET WITH NO
SIGNIFICANT WEATHER AND/OR OBSTRUCTIONS TO VISIBILITY. N/A MEANS
CURRENT SKY AND/OR WEATHER CONDITIONS ARE NOT AVAILABLE.

MNZ060>063-068>070-152300-
   Twin Cities Metro

CITY           SKY/WX    TMP DP  RH WIND       PRES   REMARKS
TWIN CITIES    CLOUDY    76  58  53 SE9       29.95R
ST PAUL        PTSUNNY   76  59  55 SE10      29.95S
CRYSTAL        CLOUDY    77  53  43 E8        29.93S
BLAINE         PTSUNNY   79  55  44 E8        29.95S
LAKEVILLE      CLOUDY    72  61  68 E8        29.95S
EDEN PRAIRIE   MOSUNNY   76  56  49 SE12      29.94R
SOUTH ST PAUL  CLOUDY    76  56  49 E6        29.95S
LAKE ELMO      FAIR      77  59  53 E8        29.97S
$$
MNZ001>005-007-008-013>017-022>024-027-028-152300-
   Northwest Minnesota

CITY           SKY/WX    TMP DP  RH WIND       PRES   REMARKS
BEMIDJI        CLOUDY    76  56  49 SE9       29.94S
HALLOCK        CLOUDY    75  61  60 SW8       29.89S
ROSEAU         CLOUDY    79  63  57 SW5       29.91S
WARROAD        PTSUNNY   75  66  73 E8        29.92S
CROOKSTON      CLOUDY    73  57  56 S10       29.92S
FOSSTON        CLOUDY    73  55  53 S8        29.94S
DETROIT LAKES  MOSUNNY   70  59  68 SE7       29.95S
MOORHEAD       CLOUDY    72  59  64 SE10      29.92F
PARK RAPIDS    CLOUDY    75  57  53 S13       29.95S
MAHNOMEN       CLOUDY    72  58  61 S6        29.94R
$$
MNZ006-009>011-018-025>026-152300-
   North Central Minnesota

CITY           SKY/WX    TMP DP  RH WIND       PRES   REMARKS
BAUDETTE       MOSUNNY   79  54  41 SW3       29.92S
FLAG ISLAND    MOSUNNY   79  61  53 CALM      29.91S
INTL FALLS     PTSUNNY   77  57  50 S6        29.93F
WASKISH        CLOUDY    77  64  65 W6        29.93S
BIG FORK       SUNNY     81  55  41 SE3       29.94F
LONGVILLE      CLOUDY    73  59  60 S7        29.96R
GRAND RAPIDS   CLOUDY    75  60  59 S7        29.97S
CRANE LAKE     MOSUNNY   77  55  47 CALM      29.96S
ORR            MOSUNNY   75  57  53 CALM      29.92F
COOK             N/A     77  57  50 SE5       29.95F
WALKER         FAIR      74  57  55 S8        29.95S
$$
MNZ012-019>021-037-152300-
   Northeast Minnesota

CITY           SKY/WX    TMP DP  RH WIND       PRES   REMARKS
DULUTH         CLOUDY    68  58  70 E10       29.99S
ELY            CLOUDY    73  55  53 SE9       29.97S
HIBBING        SUNNY     77  54  44 S6        29.95S
EVELETH        SUNNY     74  52  45 SE10      29.98S
DULUTH HARBOR  CLOUDY    66  63  88 E15       29.99S
TWO HARBORS    CLOUDY    73  61  64 E9        29.98F
SILVER BAY     SUNNY     68  55  64 E7        30.00
GRAND MARAIS     N/A     65  60  84 CALM      30.02S
$$
MNZ029>031-032-039>041-046>048-054>057-064-152300-
   West Central Minnesota

CITY           SKY/WX    TMP DP  RH WIND       PRES   REMARKS
FERGUS FALLS   CLOUDY    72  59  64 SE10      29.92S
WHEATON        CLOUDY    72  61  68 SE9       29.92F
MORRIS         CLOUDY    72  61  68 SE7       29.91F
ALEXANDRIA     LGT RAIN  70  59  68 SE9       29.95F
ELBOW LAKE     FAIR      71  61  70 SE7       29.92F
WADENA         CLOUDY    72  57  60 SE9       29.95S
GLENWOOD       CLOUDY    72  57  60 SE7       29.95F
APPLETON       CLOUDY    73  61  64 SE9       29.90F
BENSON         CLOUDY    72  59  64 S5        29.93F
ORTONVILLE     CLOUDY    73  61  64 MISG      29.90F
MADISON        CLOUDY    73  63  68 SE9       29.91R
WILLMAR        FAIR      73  63  68 E8        29.94F
$$
MNZ033>034-036-042>043-049>051-058-059-152300-
   Central Minnesota

CITY           SKY/WX    TMP DP  RH WIND       PRES   REMARKS
ST CLOUD       CLOUDY    75  58  55 SE7       29.95S
SAUK CENTRE    FAIR      71  57  61 E6        29.95F
PAYNESVILLE    CLOUDY    73  56  55 SE8       29.94F
AITKIN         MOSUNNY   75  59  57 S7        29.95S
PINE RIVER     PTSUNNY   72  55  56 S7        29.99S
BRAINERD       CLOUDY    74  59  59 SE5       29.96S
STAPLES        CLOUDY    72  55  56 SE6       29.96S
LONG PRAIRIE   FAIR      70  59  68 E6        29.96S
LITTLE FALLS   MOSUNNY   73  55  53 SE7       29.96S
LITCHFIELD     CLOUDY    75  61  60 SE9       29.95F
BUFFALO        MOSUNNY   76  55  47 E6        29.96S
MAPLE LAKE     CLOUDY    75  59  57 SE5       29.95F
HUTCHINSON     CLOUDY    73  62  68 E8        29.95F
$$
MNZ037-044-045-052-053-152300-
   East Central Minnesota

CITY           SKY/WX    TMP DP  RH WIND       PRES   REMARKS
PRINCETON      SUNNY     77  55  47 E8        29.96S
MORA           MOSUNNY   73  59  60 E5        29.98R
RUSH CITY      CLOUDY    76  57  51 SE3       29.96S
MOOSE LAKE     MOSUNNY   77  59  53 S6        29.94F
HINCKLEY       FAIR      77  59  53 S6        29.96S
CLOQUET        CLOUDY    70  61  73 SE7       29.98S
MCGREGOR       CLOUDY    77  57  50 SE6       29.96S
$$
MNZ071>073-080-081-089-090-097-098-152300-
   Southwest Minnesota

CITY           SKY/WX    TMP DP  RH WIND       PRES   REMARKS
MONTEVIDEO     DRIZZLE   73  61  64 S12       29.91F
GRANITE FALLS  CLOUDY    73  63  70 E8        29.92F
CANBY          CLOUDY    70  62  75 CALM      29.92S
MARSHALL       CLOUDY    70  62  76 SE10      29.92S
REDWOOD FALLS  CLOUDY    71  60  68 SE9       29.92S
OLIVIA         CLOUDY    72  61  68 SE8       29.92F
PIPESTONE      CLOUDY    70  63  78 SE8       29.92R
WINDOM         CLOUDY    68  63  83 E9        29.94R
WORTHINGTON    CLOUDY    68  63  84 E9        29.93S
JACKSON        CLOUDY    66  61  82 E9        29.95S
TRACY          CLOUDY    68  64  87 SE10      29.94R
SLAYTON        CLOUDY    68  58  71 SE8       29.94R
$$
MNZ065>067-074>077-082>085-091>093-152300-
   South Central Minnesota

CITY           SKY/WX    TMP DP  RH WIND       PRES   REMARKS
MANKATO        PTSUNNY   70  62  76 SE9       29.94F
NEW ULM        CLOUDY    70  61  73 SE9       29.93S
ST JAMES       CLOUDY    66  63  88 E7        29.95S
FAIRMONT       LGT RAIN  67  63  87 MISG      29.96R
GLENCOE        MOSUNNY   75  62  62 E10       29.94F
FARIBAULT      CLOUDY    72  61  68 E8        29.96S
OWATONNA       CLOUDY    72  61  68 E10       29.96R
WASECA         CLOUDY    72  63  73 E8        29.96S
ALBERT LEA     CLOUDY    72  63  73 SE7       29.97R
$$
MNZ078>079-086>088-094>096-152300-
   Southeast Minnesota

CITY           SKY/WX    TMP DP  RH WIND       PRES   REMARKS
ROCHESTER      CLOUDY    70  62  76 E9        29.98R
RED WING       CLOUDY    73  57  56 SE8       29.95R
STANTON        CLOUDY    73  60  65 E6        29.95S
DODGE CENTER   PTSUNNY   70  59  68 E7        29.97S
WINONA         CLOUDY    73  61  64 SE6       29.96S
AUSTIN         CLOUDY    66  61  82 SE8       29.97R
PRESTON        CLOUDY    68  58  72 E7        29.98S
$$
ABBREVIATIONS USED IN REMARKS
   TC - TEMPERATURES IN CELSIUS
  WCI - WIND CHILL INDEX
   HX - HEAT INDEX
  VSB - VISIBILITY
$$




USA.gov is the U.S. government's official web portal to all federal, state and local government web resources and services.